Weather History for Lihue, HI

Change the Weather History Date:

Thursday, February 14, 2013

  Actual Average Record
Temperature  
Mean Temperature 72 °F 72 °F  
Max Temperature 75 °F 78 °F 85 °F (1981)
Min Temperature 68 °F 65 °F 56 °F (1993)
Degree Days  
Heating Degree Days 0 0  
Month to date heating degree days 0 0  
Since 1 July heating degree days 0 0  
Cooling Degree Days 7 7  
Month to date cooling degree days 101 98  
Year to date cooling degree days 294 307  
Growing Degree Days 22 (Base 50)    
Moisture  
Dew Point 58 °F    
Average Humidity 70    
Maximum Humidity 79    
Minimum Humidity 61    
Precipitation  
Precipitation 0.01 in 0.11 in 3.05 in (1957)
Month to date precipitation 0.22 1.54  
Year to date precipitation 6.10 5.29  
Snow  
Snow 0.00 in - - ()
Month to date snowfall 0.0  
Since 1 July snowfall 0.0  
Snow Depth 0.00 in    
Sea Level Pressure  
Sea Level Pressure 30.09 in    
Wind  
Wind Speed 15 mph (NE)    
Max Wind Speed 23 mph    
Max Gust Speed 29 mph    
Visibility 10 miles    
Events      
T = Trace of Precipitation, MM = Missing Value Source: NWS Daily Summary

Daily Weather History Graph

Daily Weather History Graph

Search for Another Location

Airport:

Trip Planner

Search our weather history database for the weather conditions in past years. The results will help you decide how hot, cold, wet, or windy it might be!

Date:

Astronomy

Feb. 14, 2013 Rise Set
Actual Time 7:08 AM HST 6:34 PM HST
Civil Twilight 6:46 AM HST 6:57 PM HST
Nautical Twilight 6:19 AM HST 7:23 PM HST
Astronomical Twilight 5:53 AM HST 7:49 PM HST
Moon 9:59 AM HST (2/14) 11:02 PM HST (2/14)
Length of Visible Light 12h 11m
Length of Day
11h 25m
Waxing Crescent, 23% of the Moon is Illuminated
Feb 14
Waxing Crescent
Feb 17
First Quarter
Feb 25
Full
Mar 4
Last Quarter
Mar 11
New

Hourly Weather History & Observations

Time (HST) Temp. Dew Point Humidity Pressure Visibility Wind Dir Wind Speed Gust Speed Precip Events Conditions
12:53 AM 68.0 °F 57.2 °F 68% 30.12 in 10.0 mi NE 12.7 mph - N/A   Mostly Cloudy
1:53 AM 68.0 °F 57.6 °F 69% 30.10 in 10.0 mi NE 12.7 mph - N/A   Overcast
2:53 AM 69.1 °F 58.8 °F 70% 30.08 in 10.0 mi ENE 10.4 mph - N/A   Overcast
3:53 AM 69.1 °F 56.7 °F 65% 30.07 in 10.0 mi NE 17.3 mph - N/A   Overcast
4:53 AM 70.0 °F 56.1 °F 61% 30.08 in 10.0 mi NE 13.8 mph - N/A   Overcast
5:53 AM 69.1 °F 55.9 °F 63% 30.08 in 10.0 mi ENE 13.8 mph - N/A   Overcast
6:53 AM 70.0 °F 56.5 °F 62% 30.10 in 10.0 mi NE 11.5 mph - N/A   Mostly Cloudy
7:53 AM 69.1 °F 59.0 °F 70% 30.12 in 10.0 mi NE 11.5 mph - N/A   Mostly Cloudy
8:53 AM 69.1 °F 60.8 °F 75% 30.13 in 10.0 mi ENE 23.0 mph - N/A   Scattered Clouds
9:53 AM 71.1 °F 62.6 °F 75% 30.14 in 10.0 mi NE 15.0 mph 21.9 mph N/A   Overcast
10:53 AM 71.1 °F 62.6 °F 75% 30.13 in 10.0 mi NE 12.7 mph - N/A   Mostly Cloudy
11:29 AM 73.4 °F 62.6 °F 69% 30.13 in 10.0 mi ENE 16.1 mph - N/A   Mostly Cloudy
11:51 AM 73.4 °F 62.6 °F 69% 30.12 in 10.0 mi NE 13.8 mph - 0.00 in   Overcast
11:53 AM 73.9 °F 62.6 °F 68% 30.12 in 10.0 mi NNE 13.8 mph - 0.00 in   Mostly Cloudy
12:53 PM 73.0 °F 66.2 °F 79% 30.09 in 10.0 mi NE 12.7 mph - N/A   Clear
1:53 PM 73.9 °F - N/A% 30.06 in 10.0 mi NE 13.8 mph - N/A   Mostly Cloudy
2:53 PM 75.0 °F - N/A% 30.04 in 10.0 mi NE 13.8 mph - N/A   Partly Cloudy
3:53 PM 75.0 °F 64.4 °F 69% 30.04 in 10.0 mi NE 13.8 mph - N/A   Scattered Clouds
4:53 PM 73.0 °F - N/A% 30.04 in 10.0 mi NE 13.8 mph - N/A   Mostly Cloudy
5:53 PM 71.1 °F 62.6 °F 75% 30.05 in 10.0 mi NE 15.0 mph - N/A   Partly Cloudy
6:53 PM 71.1 °F - N/A% 30.05 in 10.0 mi ENE 13.8 mph - N/A   Mostly Cloudy
7:08 PM 69.8 °F - N/A% 30.06 in 10.0 mi ENE 17.3 mph - 0.00 in   Mostly Cloudy
7:53 PM 70.0 °F - N/A% 30.07 in 10.0 mi ENE 17.3 mph - 0.00 in   Mostly Cloudy
8:53 PM 70.0 °F - N/A% 30.09 in 10.0 mi NE 16.1 mph - N/A   Clear
9:53 PM 70.0 °F - N/A% 30.11 in 10.0 mi NE 16.1 mph - 0.00 in   Mostly Cloudy
10:53 PM 70.0 °F - N/A% 30.11 in 10.0 mi NE 17.3 mph - 0.01 in   Mostly Cloudy
11:53 PM 70.0 °F 61.0 °F 73% 30.11 in 10.0 mi NE 18.4 mph - N/A   Partly Cloudy